EN

Hourly Weather Roma

Today, 28 November, Saturday

Time Temperature Precipitation Wind Pressure Humidity
00:00 +17°C° 0 mm 2 mps 625 mmHg 28%
01:00 +16°C° 0 mm 2 mps 625 mmHg 32%
02:00 +15°C° 0 mm 2 mps 625 mmHg 34%
03:00 +15°C° 0.1 mm 2 mps 625 mmHg 45%
04:00 +14°C° 0.1 mm 3 mps 624 mmHg 57%
05:00 +14°C° 0.1 mm 3 mps 624 mmHg 68%
06:00 +15°C° 0.6 mm 5 mps 625 mmHg 70%
07:00 +16°C° 0.6 mm 6 mps 625 mmHg 73%
08:00 +17°C° 0 mm 7 mps 626 mmHg 77%
09:00 +17°C° 1 mm 7 mps 626 mmHg 79%
10:00 +17°C° 1 mm 7 mps 626 mmHg 82%
11:00 +17°C° 1 mm 7 mps 625 mmHg 84%
12:00 +17°C° 1.4 mm 6 mps 625 mmHg 81%
13:00 +17°C° 1.4 mm 5 mps 624 mmHg 78%
14:00 +17°C° 1.4 mm 4 mps 624 mmHg 75%
15:00 +17°C° 0.5 mm 5 mps 624 mmHg 76%
16:00 +17°C° 0.5 mm 5 mps 623 mmHg 76%
17:00 +17°C° 0.5 mm 5 mps 623 mmHg 77%
18:00 +18°C° 2.7 mm 4 mps 623 mmHg 81%
19:00 +17°C° 2.7 mm 4 mps 623 mmHg 86%
20:00 +16°C° 2.7 mm 3 mps 624 mmHg 91%
21:00 +14°C° 0.5 mm 3 mps 624 mmHg 91%
22:00 +15°C° 0.5 mm 2 mps 624 mmHg 91%
23:00 +14°C° 0.5 mm 1 mps 623 mmHg 91%

Tomorrow, 29 November, Sunday

Time Temperature Precipitation Wind Pressure Humidity
00:00 +14°C° 0 mm 1 mps 623 mmHg 90%
01:00 +14°C° 0 mm 1 mps 623 mmHg 88%
02:00 +13°C° 0 mm 1 mps 623 mmHg 87%
03:00 +13°C° 0.1 mm 1 mps 622 mmHg 86%
04:00 +14°C° 0.1 mm 1 mps 622 mmHg 85%
05:00 +14°C° 0.1 mm 1 mps 622 mmHg 85%
06:00 +15°C° 0 mm 1 mps 623 mmHg 81%
07:00 +16°C° 0 mm 1 mps 624 mmHg 76%
08:00 +19°C° 0 mm 1 mps 624 mmHg 72%
09:00 +19°C° 0 mm 2 mps 625 mmHg 67%
10:00 +20°C° 0 mm 3 mps 625 mmHg 62%
11:00 +21°C° 0 mm 4 mps 625 mmHg 57%
12:00 +23°C° 0 mm 4 mps 625 mmHg 49%
13:00 +25°C° 0 mm 5 mps 625 mmHg 42%
14:00 +26°C° 0 mm 5 mps 624 mmHg 34%
15:00 +26°C° 0 mm 5 mps 624 mmHg 32%
16:00 +26°C° 0 mm 5 mps 624 mmHg 30%
17:00 +26°C° 0 mm 5 mps 624 mmHg 28%
18:00 +24°C° 0 mm 3 mps 623 mmHg 34%
19:00 +21°C° 0 mm 2 mps 623 mmHg 39%
20:00 +19°C° 0 mm 1 mps 623 mmHg 44%
21:00 +19°C° 0 mm 1 mps 623 mmHg 43%
22:00 +18°C° 0 mm 1 mps 623 mmHg 42%
23:00 +18°C° 0 mm 1 mps 623 mmHg 41%

Day after tomorrow, 30 November, Monday

Time Temperature Precipitation Wind Pressure Humidity
00:00 +16°C° 0 mm 1 mps 623 mmHg 45%
01:00 +16°C° 0 mm 2 mps 622 mmHg 50%
02:00 +15°C° 0 mm 2 mps 622 mmHg 54%
03:00 +15°C° 0 mm 2 mps 622 mmHg 60%
04:00 +14°C° 0 mm 2 mps 622 mmHg 67%
05:00 +14°C° 0 mm 1 mps 622 mmHg 73%
06:00 +16°C° 0 mm 2 mps 623 mmHg 70%
07:00 +18°C° 0 mm 3 mps 623 mmHg 66%
08:00 +20°C° 0 mm 5 mps 624 mmHg 62%
09:00 +21°C° 0.1 mm 5 mps 624 mmHg 55%
10:00 +23°C° 0.1 mm 6 mps 624 mmHg 49%
11:00 +26°C° 0.1 mm 7 mps 624 mmHg 42%
12:00 +26°C° 0.2 mm 6 mps 624 mmHg 44%
13:00 +26°C° 0.2 mm 6 mps 623 mmHg 46%
14:00 +24°C° 0.2 mm 6 mps 623 mmHg 48%
15:00 +25°C° 0.5 mm 5 mps 622 mmHg 50%
16:00 +23°C° 0.5 mm 4 mps 621 mmHg 53%
17:00 +22°C° 0.5 mm 3 mps 621 mmHg 55%
18:00 +21°C° 0 mm 2 mps 621 mmHg 58%
19:00 +19°C° 0 mm 2 mps 620 mmHg 62%
20:00 +19°C° 0 mm 1 mps 620 mmHg 65%
21:00 +18°C° 0 mm 2 mps 621 mmHg 65%
22:00 +17°C° 0 mm 2 mps 621 mmHg 66%
23:00 +17°C° 0 mm 2 mps 621 mmHg 66%

1 December, Tuesday

Time Temperature Precipitation Wind Pressure Humidity
00:00 +16°C° 0 mm 2 mps 621 mmHg 67%
01:00 +16°C° 0 mm 2 mps 621 mmHg 69%
02:00 +16°C° 0 mm 2 mps 620 mmHg 70%
03:00 +15°C° 0.1 mm 2 mps 620 mmHg 74%
04:00 +15°C° 0.1 mm 2 mps 621 mmHg 78%
05:00 +15°C° 0.1 mm 2 mps 621 mmHg 82%
06:00 +16°C° 0.1 mm 2 mps 621 mmHg 76%
07:00 +18°C° 0.1 mm 3 mps 622 mmHg 70%
08:00 +20°C° 0.1 mm 3 mps 623 mmHg 64%
09:00 +22°C° 0.1 mm 4 mps 623 mmHg 54%
10:00 +25°C° 0.1 mm 4 mps 624 mmHg 45%
11:00 +27°C° 0.1 mm 5 mps 624 mmHg 35%
12:00 +28°C° 0 mm 6 mps 624 mmHg 29%
13:00 +29°C° 0 mm 7 mps 624 mmHg 23%
14:00 +31°C° 0 mm 8 mps 624 mmHg 17%
15:00 +29°C° 0 mm 7 mps 624 mmHg 18%
16:00 +28°C° 0 mm 7 mps 623 mmHg 20%
17:00 +28°C° 0 mm 6 mps 623 mmHg 21%
18:00 +25°C° 0 mm 4 mps 623 mmHg 25%
19:00 +22°C° 0 mm 3 mps 623 mmHg 30%
20:00 +20°C° 0 mm 1 mps 623 mmHg 34%
21:00 +19°C° 0 mm 1 mps 623 mmHg 44%
22:00 +17°C° 0 mm 2 mps 623 mmHg 53%
23:00 +16°C° 0 mm 2 mps 623 mmHg 63%

2 December, Wednesday

Time Temperature Precipitation Wind Pressure Humidity
00:00 +16°C° 0 mm 2 mps 623 mmHg 66%
01:00 +15°C° 0 mm 1 mps 623 mmHg 69%
02:00 +15°C° 0 mm 1 mps 623 mmHg 72%
03:00 +14°C° 0 mm 1 mps 623 mmHg 74%
04:00 +14°C° 0 mm 1 mps 623 mmHg 76%
05:00 +14°C° 0 mm 1 mps 623 mmHg 78%
06:00 +16°C° 0 mm 1 mps 623 mmHg 71%
07:00 +17°C° 0 mm 2 mps 624 mmHg 65%
08:00 +19°C° 0 mm 3 mps 625 mmHg 58%
09:00 +21°C° 0.3 mm 3 mps 625 mmHg 53%
10:00 +22°C° 0.3 mm 3 mps 625 mmHg 48%
11:00 +25°C° 0.3 mm 4 mps 625 mmHg 43%
12:00 +25°C° 0.3 mm 3 mps 624 mmHg 43%
13:00 +25°C° 0.3 mm 3 mps 624 mmHg 42%
14:00 +26°C° 0.3 mm 2 mps 623 mmHg 41%
15:00 +22°C° 2.5 mm 3 mps 623 mmHg 51%
16:00 +20°C° 2.5 mm 3 mps 622 mmHg 60%
17:00 +18°C° 2.5 mm 3 mps 621 mmHg 69%
18:00 +17°C° 0.5 mm 3 mps 622 mmHg 71%
19:00 +17°C° 0.5 mm 2 mps 622 mmHg 73%
20:00 +17°C° 0.5 mm 2 mps 622 mmHg 75%
21:00 +16°C° 0.3 mm 2 mps 623 mmHg 77%
22:00 +16°C° 0.3 mm 2 mps 623 mmHg 79%
23:00 +15°C° 0.3 mm 2 mps 623 mmHg 82%

3 December, Thursday

Time Temperature Precipitation Wind Pressure Humidity
00:00 +15°C° 0.3 mm 2 mps 623 mmHg 83%
01:00 +15°C° 0.3 mm 2 mps 623 mmHg 85%
02:00 +14°C° 0.3 mm 1 mps 623 mmHg 87%
03:00 +14°C° 0.9 mm 1 mps 623 mmHg 88%
04:00 +14°C° 0.9 mm 1 mps 623 mmHg 90%
05:00 +14°C° 0.9 mm 1 mps 623 mmHg 92%
06:00 +15°C° 1 mm 2 mps 624 mmHg 87%
07:00 +15°C° 1 mm 4 mps 624 mmHg 82%
08:00 +16°C° 1 mm 5 mps 625 mmHg 78%
09:00 +18°C° 0.7 mm 4 mps 625 mmHg 72%
10:00 +19°C° 0.7 mm 4 mps 625 mmHg 66%
11:00 +21°C° 0.7 mm 4 mps 626 mmHg 59%
12:00 +21°C° 1.8 mm 4 mps 625 mmHg 60%
13:00 +21°C° 1.8 mm 4 mps 625 mmHg 60%
14:00 +22°C° 1.8 mm 4 mps 624 mmHg 60%
15:00 +22°C° 1.4 mm 3 mps 624 mmHg 57%
16:00 +23°C° 1.4 mm 2 mps 624 mmHg 54%
17:00 +23°C° 1.4 mm 1 mps 624 mmHg 52%
18:00 +21°C° 0.5 mm 1 mps 624 mmHg 60%
19:00 +18°C° 0.5 mm 2 mps 624 mmHg 68%
20:00 +16°C° 0.5 mm 2 mps 624 mmHg 76%
21:00 +16°C° 0.1 mm 2 mps 624 mmHg 78%
22:00 +16°C° 0.1 mm 2 mps 624 mmHg 80%
23:00 +15°C° 0.1 mm 2 mps 624 mmHg 82%
Show more

We Need Your Consent

Meteoprog and our Service Providers may store and access personal data such as cookies, device identifiers or other similar technologies on your device and process such data to personalise content and ads, as well as provide social media features and to analyse the traffic.

  • Store and/or access information on your device

    Cookies, device identifiers or other information can be stored or accessed on your device for the purposes indicated above.

  • Personalised ads and content, ad and content measurement, audience insights, and products development

    Ads and content can be personalised based on a profile. More data can be added to better personalise ads and content. Ad and content performance can be measured. Insights about the audience who saw the ads and content can be derived. Such data can be used to develop or improve user’s experience, systems and software.

By clicking ‘I Agree’ you will allow the use of indicated cookies, device identifiers, web beacons or other similar technologies. Your settings can be changed in the browser on your device.

For certain purposes, legitimate interests may be relied on, rather than consent. You can read more about this in our Privacy and Cookie Policy.